| time (UTC) | temp F | wind direction | speed MPH | gust MPH | rain 1hr in | rain 24hr in | rain mn in | humidity % | barometer mb |
| 20260509173754 | 47 | 0.0 | 0.0 | 0.00 | 0.00 | 0.00 | 94 | 1028.8 | |
| 20260509172627 | 48 | 0.0 | 0.0 | 0.00 | 0.00 | 0.00 | 93 | 1028.7 | |
| 20260509171438 | 48 | 159 | 1.0 | 1.0 | 0.00 | 0.00 | 0.00 | 93 | 1028.7 |
| 20260509170144 | 48 | 161 | 0.0 | 1.0 | 0.00 | 0.00 | 0.00 | 93 | 1028.7 |
| 20260509164954 | 48 | 160 | 1.0 | 1.0 | 0.00 | 0.00 | 0.00 | 93 | 1028.8 |
| 20260509163804 | 48 | 166 | 1.0 | 1.0 | 0.00 | 0.00 | 0.00 | 93 | 1028.7 |
| 20260509162614 | 48 | 166 | 1.0 | 1.0 | 0.00 | 0.00 | 0.00 | 93 | 1028.8 |
| 20260509161423 | 48 | 0.0 | 1.0 | 0.00 | 0.00 | 0.00 | 93 | 1028.8 | |
| 20260509160232 | 48 | 0.0 | 0.0 | 0.00 | 0.00 | 0.00 | 93 | 1028.9 | |
| 20260509154939 | 48 | 175 | 0.0 | 1.0 | 0.00 | 0.00 | 0.00 | 93 | 1029.0 |
| 20260509153748 | 48 | 158 | 1.0 | 2.0 | 0.00 | 0.00 | 0.00 | 93 | 1028.9 |
| 20260509152700 | 48 | 156 | 1.0 | 2.0 | 0.00 | 0.00 | 0.00 | 92 | 1028.9 |
| 20260509151407 | 48 | 0.0 | 0.0 | 0.00 | 0.00 | 0.00 | 92 | 1029.0 | |
| 20260509150217 | 48 | 157 | 1.0 | 1.0 | 0.00 | 0.00 | 0.00 | 92 | 1029.0 |
| 20260509145026 | 49 | 0.0 | 1.0 | 0.00 | 0.00 | 0.00 | 91 | 1029.1 | |
| 20260509143734 | 49 | 157 | 1.0 | 1.0 | 0.00 | 0.00 | 0.00 | 91 | 1029.0 |
| 20260509142543 | 49 | 157 | 0.0 | 1.0 | 0.00 | 0.00 | 0.00 | 91 | 1028.9 |
| 20260509141353 | 49 | 155 | 1.0 | 2.0 | 0.00 | 0.00 | 0.00 | 91 | 1029.1 |
| 20260509140203 | 49 | 153 | 1.0 | 1.0 | 0.00 | 0.00 | 0.00 | 91 | 1029.1 |
| 20260509135013 | 49 | 162 | 0.0 | 1.0 | 0.00 | 0.00 | 0.00 | 91 | 1029.1 |
| 20260509133718 | 49 | 162 | 1.0 | 1.0 | 0.00 | 0.00 | 0.00 | 91 | 1029.1 |
| 20260509132529 | 49 | 162 | 0.0 | 1.0 | 0.00 | 0.00 | 0.00 | 90 | 1029.3 |
| 20260509131522 | 49 | 162 | 1.0 | 1.0 | 0.00 | 0.00 | 0.00 | 90 | 1029.3 |
| 20260509130147 | 50 | 0.0 | 1.0 | 0.00 | 0.00 | 0.00 | 90 | 1029.2 | |
| 20260509124959 | 50 | 0.0 | 0.0 | 0.00 | 0.00 | 0.00 | 89 | 1029.4 | |
| 20260509123809 | 50 | 162 | 1.0 | 2.0 | 0.00 | 0.00 | 0.00 | 89 | 1029.3 |
| 20260509122516 | 50 | 162 | 1.0 | 1.0 | 0.00 | 0.00 | 0.00 | 89 | 1029.5 |
| 20260509121429 | 51 | 162 | 0.0 | 1.0 | 0.00 | 0.00 | 0.00 | 89 | 1029.6 |
| 20260509120240 | 51 | 0.0 | 1.0 | 0.00 | 0.00 | 0.00 | 89 | 1029.5 | |
| 20260509114944 | 51 | 161 | 1.0 | 1.0 | 0.00 | 0.00 | 0.00 | 89 | 1029.5 |
| 20260509113834 | 51 | 157 | 1.0 | 2.0 | 0.00 | 0.00 | 0.00 | 88 | 1029.4 |
| 20260509112644 | 51 | 162 | 1.0 | 1.0 | 0.00 | 0.00 | 0.00 | 88 | 1029.5 |
| 20260509111412 | 52 | 170 | 1.0 | 1.0 | 0.00 | 0.00 | 0.00 | 88 | 1029.5 |
| 20260509110221 | 51 | 178 | 0.0 | 1.0 | 0.00 | 0.00 | 0.00 | 88 | 1029.3 |
| 20260509105031 | 51 | 149 | 1.0 | 2.0 | 0.00 | 0.00 | 0.00 | 87 | 1029.3 |
| 20260509103738 | 52 | 164 | 1.0 | 1.0 | 0.00 | 0.00 | 0.00 | 87 | 1029.1 |
| 20260509102728 | 52 | 0.0 | 0.0 | 0.00 | 0.00 | 0.00 | 86 | 1029.2 | |
| 20260509101358 | 52 | 153 | 1.0 | 2.0 | 0.00 | 0.00 | 0.00 | 86 | 1029.0 |
| 20260509100208 | 53 | 147 | 1.0 | 2.0 | 0.00 | 0.00 | 0.00 | 86 | 1028.9 |
| 20260509095018 | 53 | 160 | 1.0 | 2.0 | 0.00 | 0.00 | 0.00 | 85 | 1028.9 |
| 20260509093725 | 53 | 170 | 1.0 | 2.0 | 0.00 | 0.00 | 0.00 | 85 | 1028.7 |
| 20260509092535 | 53 | 135 | 2.0 | 2.0 | 0.00 | 0.00 | 0.00 | 85 | 1028.7 |
| 20260509091449 | 54 | 164 | 1.0 | 1.0 | 0.00 | 0.00 | 0.00 | 84 | 1028.6 |
| 20260509090155 | 55 | 0.0 | 0.0 | 0.00 | 0.00 | 0.00 | 81 | 1028.5 | |
| 20260509085005 | 55 | 168 | 1.0 | 1.0 | 0.00 | 0.00 | 0.00 | 80 | 1028.3 |
| 20260509083816 | 56 | 131 | 2.0 | 2.0 | 0.00 | 0.00 | 0.00 | 78 | 1028.2 |
| 20260509082522 | 57 | 0.0 | 0.0 | 0.00 | 0.00 | 0.00 | 76 | 1028.0 | |
| 20260509081435 | 58 | 0.0 | 1.0 | 0.00 | 0.00 | 0.00 | 75 | 1027.8 | |
| 20260509080246 | 59 | 132 | 0.0 | 1.0 | 0.00 | 0.00 | 0.00 | 73 | 1027.7 |
| 20260509074953 | 60 | 172 | 1.0 | 3.0 | 0.00 | 0.00 | 0.00 | 71 | 1027.4 |
| 20260509073802 | 61 | 182 | 1.0 | 2.0 | 0.00 | 0.00 | 0.00 | 70 | 1027.3 |
| 20260509072528 | 62 | 136 | 2.0 | 4.0 | 0.00 | 0.00 | 0.00 | 68 | 1027.1 |
| 20260509071522 | 63 | 121 | 4.0 | 9.0 | 0.00 | 0.00 | 0.00 | 67 | 1027.0 |
| 20260509070227 | 63 | 110 | 5.0 | 8.0 | 0.00 | 0.00 | 0.00 | 66 | 1027.0 |
| 20260509064934 | 63 | 88 | 4.0 | 8.0 | 0.00 | 0.00 | 0.00 | 64 | 1026.6 |
| 20260509063824 | 64 | 99 | 4.0 | 7.0 | 0.00 | 0.00 | 0.00 | 62 | 1026.7 |
| 20260509062633 | 65 | 120 | 6.0 | 9.0 | 0.00 | 0.00 | 0.00 | 61 | 1026.7 |
| 20260509061403 | 65 | 71 | 6.0 | 11.0 | 0.00 | 0.00 | 0.00 | 60 | 1026.5 |
| 20260509060213 | 66 | 125 | 7.0 | 11.0 | 0.00 | 0.00 | 0.00 | 59 | 1026.3 |
| 20260509055023 | 66 | 106 | 7.0 | 14.0 | 0.00 | 0.00 | 0.00 | 58 | 1026.2 |
| 20260509053729 | 66 | 93 | 5.0 | 10.0 | 0.00 | 0.00 | 0.00 | 57 | 1026.0 |
| 20260509052539 | 66 | 82 | 5.0 | 11.0 | 0.00 | 0.00 | 0.00 | 56 | 1025.9 |
| 20260509051452 | 67 | 90 | 8.0 | 15.0 | 0.00 | 0.00 | 0.00 | 56 | 1025.9 |
| 20260509050239 | 68 | 115 | 5.0 | 10.0 | 0.00 | 0.00 | 0.00 | 55 | 1025.9 |
| 20260509045049 | 68 | 105 | 7.0 | 10.0 | 0.00 | 0.00 | 0.00 | 54 | 1025.7 |
| 20260509043819 | 70 | 124 | 5.0 | 7.0 | 0.00 | 0.00 | 0.00 | 51 | 1026.0 |
| 20260509042626 | 69 | 107 | 6.0 | 13.0 | 0.00 | 0.00 | 0.00 | 49 | 1025.7 |
| 20260509041440 | 70 | 123 | 5.0 | 9.0 | 0.00 | 0.00 | 0.00 | 49 | 1026.0 |
| 20260509040249 | 69 | 116 | 6.0 | 10.0 | 0.00 | 0.00 | 0.00 | 49 | 1025.8 |
| 20260509035036 | 69 | 99 | 3.0 | 8.0 | 0.00 | 0.00 | 0.00 | 49 | 1026.0 |
| 20260509033806 | 69 | 130 | 5.0 | 9.0 | 0.00 | 0.00 | 0.00 | 49 | 1025.9 |
| 20260509032513 | 69 | 161 | 4.0 | 10.0 | 0.00 | 0.00 | 0.00 | 49 | 1026.1 |
| 20260509031427 | 69 | 123 | 5.0 | 8.0 | 0.00 | 0.00 | 0.00 | 48 | 1026.3 |
| 20260509030237 | 69 | 99 | 4.0 | 8.0 | 0.00 | 0.00 | 0.00 | 48 | 1026.3 |
| 20260509024943 | 69 | 133 | 6.0 | 9.0 | 0.00 | 0.00 | 0.00 | 47 | 1026.4 |
| 20260509023752 | 69 | 122 | 5.0 | 9.0 | 0.00 | 0.00 | 0.00 | 46 | 1026.6 |
| 20260509022603 | 69 | 165 | 6.0 | 10.0 | 0.00 | 0.00 | 0.00 | 46 | 1026.9 |
| 20260509021413 | 68 | 156 | 4.0 | 9.0 | 0.00 | 0.00 | 0.00 | 49 | 1027.0 |
| 20260509020223 | 69 | 144 | 4.0 | 10.0 | 0.00 | 0.00 | 0.00 | 49 | 1027.1 |
| 20260509015033 | 68 | 135 | 5.0 | 8.0 | 0.00 | 0.00 | 0.00 | 49 | 1027.3 |
| 20260509013739 | 68 | 123 | 4.0 | 10.0 | 0.00 | 0.00 | 0.00 | 49 | 1027.4 |
| 20260509012549 | 67 | 111 | 5.0 | 9.0 | 0.00 | 0.00 | 0.00 | 49 | 1027.6 |
| 20260509011503 | 67 | 190 | 5.0 | 8.0 | 0.00 | 0.00 | 0.00 | 49 | 1027.5 |
| 20260509010209 | 67 | 175 | 3.0 | 8.0 | 0.00 | 0.00 | 0.00 | 50 | 1027.7 |
| 20260509005158 | 66 | 178 | 3.0 | 8.0 | 0.00 | 0.00 | 0.00 | 50 | 1027.6 |
| 20260509003725 | 67 | 182 | 4.0 | 6.0 | 0.00 | 0.00 | 0.00 | 50 | 1027.7 |
| 20260509002535 | 66 | 173 | 3.0 | 9.0 | 0.00 | 0.00 | 0.00 | 51 | 1027.7 |
| 20260509001448 | 66 | 139 | 5.0 | 9.0 | 0.00 | 0.00 | 0.00 | 51 | 1027.7 |
| 20260509000155 | 66 | 165 | 5.0 | 7.0 | 0.00 | 0.00 | 0.00 | 51 | 1027.7 |
| 20260508235005 | 66 | 139 | 5.0 | 7.0 | 0.00 | 0.00 | 0.00 | 51 | 1027.6 |
| 20260508233855 | 65 | 163 | 5.0 | 9.0 | 0.00 | 0.00 | 0.00 | 52 | 1027.6 |
| 20260508232521 | 65 | 158 | 2.0 | 4.0 | 0.00 | 0.00 | 0.00 | 53 | 1027.7 |
| 20260508231319 | 64 | 210 | 2.0 | 4.0 | 0.00 | 0.00 | 0.00 | 53 | 1027.6 |
| 20260508230232 | 64 | 166 | 2.0 | 7.0 | 0.00 | 0.00 | 0.00 | 54 | 1027.8 |
| 20260508225019 | 63 | 178 | 3.0 | 6.0 | 0.00 | 0.00 | 0.00 | 55 | 1027.7 |
| 20260508223910 | 63 | 155 | 4.0 | 6.0 | 0.00 | 0.00 | 0.00 | 55 | 1027.5 |
| 20260508222600 | 62 | 165 | 3.0 | 6.0 | 0.00 | 0.00 | 0.00 | 56 | 1027.5 |
| 20260508221307 | 62 | 166 | 1.0 | 1.0 | 0.00 | 0.00 | 0.00 | 58 | 1027.4 |
| 20260508220220 | 61 | 179 | 2.0 | 6.0 | 0.00 | 0.00 | 0.00 | 58 | 1027.3 |
| 20260508215030 | 58 | 213 | 1.0 | 4.0 | 0.00 | 0.00 | 0.00 | 70 | 1027.3 |
| 20260508213737 | 55 | 172 | 1.0 | 2.0 | 0.00 | 0.00 | 0.00 | 73 | 1027.1 |
| 20260508212547 | 53 | 117 | 2.0 | 3.0 | 0.00 | 0.00 | 0.00 | 77 | 1027.1 |
| 20260508211356 | 52 | 143 | 1.0 | 2.0 | 0.00 | 0.00 | 0.00 | 79 | 1027.0 |
| 20260508210207 | 52 | 131 | 1.0 | 2.0 | 0.00 | 0.00 | 0.00 | 79 | 1026.9 |
| 20260508205017 | 52 | 140 | 1.0 | 2.0 | 0.00 | 0.00 | 0.00 | 79 | 1026.5 |
| 20260508203828 | 52 | 112 | 1.0 | 3.0 | 0.00 | 0.00 | 0.00 | 77 | 1026.5 |
| 20260508202534 | 53 | 100 | 1.0 | 2.0 | 0.00 | 0.00 | 0.00 | 76 | 1026.0 |
| 20260508201344 | 54 | 46 | 1.0 | 2.0 | 0.00 | 0.00 | 0.00 | 74 | 1026.2 |
| 20260508200153 | 55 | 65 | 1.0 | 3.0 | 0.00 | 0.00 | 0.00 | 73 | 1025.8 |
| 20260508195003 | 59 | 190 | 1.0 | 3.0 | 0.00 | 0.00 | 0.00 | 60 | 1025.7 |
| 20260508193813 | 60 | 162 | 3.0 | 7.0 | 0.00 | 0.00 | 0.00 | 59 | 1025.7 |
| 20260508192520 | 59 | 164 | 4.0 | 7.0 | 0.00 | 0.00 | 0.00 | 61 | 1025.4 |
| 20260508191330 | 60 | 188 | 2.0 | 7.0 | 0.00 | 0.00 | 0.00 | 61 | 1025.4 |
| 20260508190245 | 56 | 180 | 2.0 | 4.0 | 0.00 | 0.00 | 0.00 | 71 | 1025.2 |
| 20260508184951 | 57 | 220 | 1.0 | 2.0 | 0.00 | 0.00 | 0.00 | 69 | 1025.2 |
| 20260508183800 | 57 | 219 | 0.0 | 1.0 | 0.00 | 0.00 | 0.00 | 69 | 1025.1 |
| 20260508182651 | 57 | 0.0 | 1.0 | 0.00 | 0.00 | 0.00 | 71 | 1025.1 | |
| 20260508181317 | 57 | 0.0 | 1.0 | 0.00 | 0.00 | 0.00 | 71 | 1024.8 | |
| 20260508180229 | 57 | 0.0 | 0.0 | 0.00 | 0.00 | 0.00 | 70 | 1024.9 | |
| 20260508175039 | 58 | 257 | 1.0 | 2.0 | 0.00 | 0.00 | 0.00 | 68 | 1024.6 |